{"data":{"norad_id":63639,"intl_designator":"2025-083F","name":"STARLINK-33876","alt_names":[],"object_type":"PAYLOAD","status":"ACTIVE","operator":null,"country":"US","launch_date":"2025-04-25","launch_site_code":"AFETR","launch_vehicle":null,"mission":null,"orbit_class":"UNKNOWN","rcs_meters":null,"size_class":null,"mass_kg":null,"dimensions":null,"purposes":["comms"],"wikipedia_slug":null,"has_3d_model":false,"image_url":null,"decayed_at":null,"tle_current":{"epoch":"2026-05-25T02:34:23.796768Z","epoch_age_seconds":62870,"freshness":"FRESH","line1":"1 63639U 25083F   26145.10721987  .00015788  00000+0  58188-3 0  9999","line2":"2 63639  43.0032 293.6612 0001402 278.1903  81.8790 15.27587877 61756","mean_motion":15.27587877,"eccentricity":0.0001402,"inclination_deg":43.0032,"raan_deg":293.6612,"arg_perigee_deg":278.1903,"mean_anomaly_deg":81.879,"bstar":0.00058188,"rev_number":6175,"period_min":94.266262627587,"perigee_km":482.06357458543,"apogee_km":483.98744455311,"semimajor_km":6861.1625095693,"source":"CELESTRAK","updated_at":"2026-05-25T13:38:20.052798Z"}}}